Regional Weather Roundup
Issued by NWS Grand Forks, ND

Home | Current Version | Previous Version | Text Only | Print | Product List | Glossary On
Versions: 1 2 3 4 5 6 7 8 9 10 11 12 13 14 15 16 17 18 19 20 21 22 23 24 25 26 27 28 29 30 31 32 33 34 35 36 37 38 39 40 41 42 43 44 45 46 47 48 49 50
446
ASUS43 KFGF 211431
RWRFGF
PRAIRIE TO PINES  WEATHER ROUNDUP
NATIONAL WEATHER SERVICE EASTERN NORTH DAKOTA/GRAND FORKS ND
800 AM CST THU NOV 21 2019

 **SATELLITE DATA USED TO AUGMENT SKY COVER AT AUTOMATED STATIONS**
 *****  WEATHER ACROSS EASTERN NORTH DAKOTA  *****

CITY           SKY/WX    TMP DP  RH WIND       PRES   REMARKS
GRAND FORKS    LGT SNOW  15  11  83 N21G28    30.16R FOG     WCI  -2
GRAND FRKS AFB FLURRIES  16  14  93 N18       30.17R WCI  -1
GRAND FRKS NWS   N/A     15  13  94 N20       30.12R WCI  -3
DEVILS LAKE    FLURRIES  16  13  88 NW12      30.14R WCI   3
FARGO          FLURRIES  17  12  80 N24G33    30.13R WCI  -1
WAHPETON ARPT  CLOUDY    19  16  86 NW24      30.11R WCI   2
$$

 ***** WEATHER ACROSS CENTRAL AND WESTERN NORTH DAKOTA  *****

CITY           SKY/WX    TMP DP  RH WIND       PRES   REMARKS
BISMARCK       NOT AVBL
MINOT          FAIR      11   7  84 W10       30.19R WCI  -3
JAMESTOWN      FLURRIES  18  14  84 NW17      30.14R WCI   3
MINOT AFB      FAIR       6   2  85 W3        30.18R
GARRISON         N/A     12  11  95 NW8       30.18R WCI   0
WILLISTON      NOT AVBL
DICKINSON      FAIR      19  16  88 W9        30.16R WCI   8
HETTINGER      FAIR      19  16  88 NW12      30.18R WCI   7
$$

 *****  OTHER AIRPORT OBSERVATIONS IN OUR AREA  *****

CITY           SKY/WX    TMP DP  RH WIND       PRES   REMARKS
WALHALLA       CLOUDY    14  14 100 N12       30.18R WCI   0
GRAFTON AIRPOR LGT SNOW  14  10  85 N17       30.20R WCI  -3
VALLEY CITY AR FLURRIES  19  19 100 N14G21    30.14R WCI   6
CANDO          CLOUDY    16  16 100 NW14      30.18R WCI   1
CAVALIER APRT  LGT SNOW  12   9  85 N10       30.18R WCI  -1
GWINNER        CLOUDY    23  21  93 N20       30.13R WCI   8
SHEYENNE NWR     N/A     21  17  84 N12       29.95S WCI   9
ROLLA          FLURRIES  10   9  92 NW10      30.14R WCI  -3
 ***** THE ABOVE OBSERVATIONS ARE NON NWS ARE NOT QUALITY
       CONTROLLED AND MAY MIS-REPORT RAIN FOR SNOW...
$$

  *****  WEATHER ACROSS NORTHERN MINNESOTA  *****

CITY           SKY/WX    TMP DP  RH WIND       PRES   REMARKS
FLAG ISLAND      N/A     16  10  79 N14       30.06R WCI   1
WARROAD        LGT SNOW  14  10  85 NW8       30.08R WCI   3
ROSEAU         NOT AVBL
HALLOCK        FLURRIES  16  12  86 N12       30.16R WCI   3
THF RVR FALLS  LGT SNOW  14  11  87 N14       30.10R FOG     WCI  -1
BAUDETTE       LGT SNOW  14   9  80 N15G25    30.03R WCI  -1
WASKISH        LGT SNOW  16  12  86 CALM      30.02R
CROOKSTON      LGT SNOW  16  12  86 N21       30.14R WCI  -2
STEPHEN NDAWN    N/A     14  10  85 MISG        N/A
GREENBUSH NDAW   N/A     14  10  85 CALM        N/A
$$
  *****  WEATHER ACROSS CENTRAL AND WEST MINNESOTA  *****

CITY           SKY/WX    TMP DP  RH WIND       PRES   REMARKS
FOSSTON        FLURRIES  12  10  92 NW13      30.07R WCI  -3
BEMIDJI        CLOUDY    19  17  94 NW15      30.00R WCI   5
PARK RAPIDS    CLOUDY    24  21  88 NW16G28   29.95R WCI  11
ELBOW LAKE     CLOUDY    20  19  96 NW21G32   30.04R WCI   4
WADENA         CLOUDY    25  23  93 NW17      29.96R WCI  11
DETROIT LAKES  CLOUDY    19  18  93 N23       30.05R WCI   2
MOORHEAD       FLURRIES  18  10  73 NW22G29   30.14R WCI   0
FERGUS FALLS   CLOUDY    19  16  86 N21G32    30.07R WCI   3
MORRIS MN      CLOUDY    21  21 100 NW28      29.97R WCI   3
STAPLES        CLOUDY    28  27  93 N14G24    29.94R WCI  17
$$
  *****  WEATHER ELSEWHERE ACROSS MINNESOTA  *****

CITY           SKY/WX    TMP DP  RH WIND       PRES   REMARKS
DULUTH         LGT SNOW  30  27  88 N15G24    29.78R VSB 3/4 WCI  19
INTRNTL FALLS  CLOUDY    23  20  88 NW14      29.93R WCI  11
ELY            NOT AVBL
CLOQUET        LGT SNOW  30  28  93 N14G23    29.81R WCI  20
WHEATON        NOT AVBL
BRAINERD       CLOUDY    34  28  79 N14       29.88R WCI  25
HIBBING        LGT SNOW  27  24  89 N15G21    29.86R FOG     WCI  15
ALEXANDRIA     CLOUDY    27  24  89 NW17G30   29.95R WCI  14
SAINT CLOUD    FLURRIES  33  30  88 N16G29    29.84R WCI  23
MINNEAPOLIS    LGT SNOW  35  32  88 N15G23    29.79R FOG
$$

  *****  WEATHER ACROSS SOUTH DAKOTA  *****

CITY           SKY/WX    TMP DP  RH WIND       PRES   REMARKS
SIOUX FALLS    CLOUDY    33  28  81 NW18G30   30.00R WCI  22
BROOKINGS      CLOUDY    27  26  96 NW21G31   30.01R WCI  13
WATERTOWN      CLOUDY    24  22  91 NW21G35   30.04R WCI   9
HURON          CLOUDY    28  24  85 N24G31    30.11R WCI  14
SISSETON         N/A     23  20  88 NW26G38   30.08R WCI   6
ABERDEEN       CLOUDY    25  19  78 N20G28    30.16R WCI  11
MITCHELL       CLOUDY    30  25  81 N23G31    30.11R WCI  17
PIERRE         CLOUDY    24  17  74 N18G28    30.18R WCI  10
MOBRIDGE       FAIR      21  14  74 NW15G26   30.17R WCI   8
RAPID CITY     FAIR      23  17  78 N15       30.17R WCI  10
$$

  *****  SOME WEATHER IN NEARBY STATES *****

CITY           SKY/WX    TMP DP  RH WIND       PRES   REMARKS
GLASGOW MT     CLOUDY    28  24  85 E7        30.17R WCI  21
GREAT FALLS MT FAIR      22  16  78 S8        30.02F WCI  12
CHEYENNE WY    CLOUDY    20  16  84 N10       30.04F WCI   9
SCOTTSBLUFF NE CLOUDY    28  24  85 NW7       30.13R WCI  21
OMAHA NE       CLOUDY    39  34  82 NW21G35   29.96R
DES MOINES IA  DRIZZLE   43  40  89 NW24G36   29.82R
DAVENPORT IA   CLOUDY    53  48  83 S22G31    29.69S
CHICAGO IL     CLOUDY    47  45  93 S14G33    29.76F
EAU CLAIRE WI  LGT RAIN  42  39  89 N9        29.62R FOG
LA CROSSE WI   LGT RAIN  45  42  89 NW10      29.57R FOG
$$

  *****  SOME NATIONAL WEATHER *****

CITY           SKY/WX    TMP DP  RH WIND       PRES   REMARKS
LA GUARDIA NY  FAIR      42  31  64 NE5       30.21R
RALEIGH NC     FAIR      43  39  86 CALM      30.32R
ATLANTA GA     FAIR      51  39  63 SE5       30.30R
NEW ORLEANS LA PTSUNNY   66  56  70 SE8       30.18R
OKLAHOMA CITY  CLOUDY    48  44  86 N20G26    30.02R
ALBUQUERQUE NM LGT RAIN  40  37  89 N15G24    29.96R FOG
SALT LAKE CITY CLOUDY    41  26  55 E16       29.79R
LOS ANGELES CA FAIR      55  46  71 NE5       29.82R
BOISE ID       FAIR      27  20  75 S3        29.95S
SEATTLE WA     FOG       36  34  92 E5        29.99F VSB 1/8
$$

*** WEATHER ACROSS MANITOBA...SASKATCHEWAN AND ONTARIO ***
                ***ONTARIO***

CITY           SKY/WX    TMP DP  RH WIND       PRES   REMARKS
GERALDTON      LGT SNOW  28  27  93 N9        29.77F VSB 3/4 WCI  20
THUNDER BAY    LGT SNOW  30  27  86 N14G20    29.77F WCI  20
SIOUX LOOKOUT  FLURRIES  14  10  85 N9        29.96R WCI   2
TORONTO        CLOUDY    37  34  87 S14       30.13S
BIG TROUT LK   FLURRIES   9   7  92 NW12G20   29.96R WCI  -6
PICKLE LAKE    FLURRIES  14  10  85 N7        29.93S WCI   4
DRYDEN         FLURRIES  12   9  85 N8G21     29.97R WCI   1
KENORA         FLURRIES  12   9  85 N10       30.02R WCI  -1
$$
                *** MANITOBA***

CITY           SKY/WX    TMP DP  RH WIND       PRES   REMARKS
BRANDON        PTCLDY    -2  -8  78 NW9       30.18R WCI -18
DAUPHIN        FLURRIES  10   5  79 W8        30.19S WCI  -1
ISLAND LAKE    NOT AVBL
PILOT MOUND      N/A     14  12  92 N8          N/A  WCI   3
THE PAS        CLEAR     -2  -6  84 SE6       30.13S WCI -14
THOMPSON       FLURRIES   0  -4  85 CALM      30.08S
WINNIPEG       FLURRIES  14   9  79 N12       30.18R WCI   0
LYNN LAKE      CLOUDY    -2  -6  84 S6        29.97F WCI -14
CHURCHILL      PTCLDY    -6  -9  84 NW15      30.02F WCI -27
GILLAM         PTCLDY    -6 -11  77 W6        30.07S WCI -18
$$
                ***SASKATCHEWAN***

CITY           SKY/WX    TMP DP  RH WIND       PRES   REMARKS
ESTEVAN        CLOUDY    10   7  85 W6        30.19S WCI   1
KINDERSLEY     PTCLDY    23  21  93 S15       29.99F WCI  10
LLOYDMINSTER   PTCLDY    25  21  86 SW12      29.90F WCI  14
PRINCE ALBERT  MOCLDY    25  23  93 SW7       30.04S WCI  17
REGINA         PTCLDY    14  10  85 S5        30.13F WCI   6
YORKTON        CLOUDY    12   9  85 S3        30.11F
N. BATTLEFORD  CLOUDY    28  25  86 SW7       30.00F WCI  21
LA RONGE       PTCLDY    16  14  93 S6        29.94F WCI   7
SASKATOON      MOCLDY    28  25  86 S10       30.03F WCI  19
SWIFT CURRENT  CLOUDY    21  19  93 SW13      30.04F WCI   9
$$
NOTE: THESE ARE AUTOMATED STATIONS WITH LIMITED QUALITY CONTROL
      "FAIR" INDICATES FEW OR NO CLOUDS BELOW 12,000 FEET WITH NO
      SIGNIFICANT WEATHER AND/OR OBSTRUCTIONS TO VISIBILITY.
      SKY/WX - SKY CONDITION AND SIGNIFICANT WEATHER.
      TMP - AIR TEMPERATURE.    DP   - DEWPOINT TEMPERATURE.
      RH  - RELATIVE HUMIDITY.  PRES - PRESSURE.
      HX  - HEAT INDEX.         WCI  - WIND CHILL INDEX.
$




USA.gov is the U.S. government's official web portal to all federal, state and local government web resources and services.